This is the latest recevied weather packets stored in our database for station/object PACCTY. If no packets are shown the sender has not sent any weather packets the latest 10 day(s).
| Time | Temp. | Humidity | Pressure | Rain* | Wind** | Luminosity | Snow |
|---|---|---|---|---|---|---|---|
| 1777836615 | 23.33° C | 58% | 1008.1 hPa | 0 mm | - | - | - |
| 1777836317 | 23.33° C | 58% | 1008.1 hPa | 0 mm | - | - | - |
| 1777836014 | 23.89° C | 55% | 1008.2 hPa | 0 mm | - | - | - |
| 1777835714 | 24.44° C | 56% | 1008.1 hPa | 0 mm | - | - | - |
| 1777835416 | 25° C | 55% | 1008.1 hPa | 0 mm | - | - | - |
| 1777835116 | 25.56° C | 54% | 1008.1 hPa | 0 mm | - | - | - |
| 1777834815 | 25.56° C | 53% | 1008.2 hPa | 0 mm | - | - | - |
| 1777834515 | 25.56° C | 53% | 1008.2 hPa | 0 mm | - | - | - |
| 1777833914 | 25.56° C | 52% | 1008.2 hPa | 0 mm | - | - | - |
| 1777833313 | 25.56° C | 54% | 1008.2 hPa | 0 mm | - | - | - |
| 1777833014 | 25° C | 51% | 1008.2 hPa | 0 mm | - | - | - |
| 1777832713 | 25° C | 55% | 1008.3 hPa | 0 mm | - | - | - |
| 1777832413 | 25° C | 55% | 1008.2 hPa | 0 mm | - | - | - |
| 1777832113 | 25° C | 56% | 1008.3 hPa | 0 mm | - | - | - |
| 1777831813 | 25° C | 57% | 1008.3 hPa | 0 mm | - | - | - |
| 1777831513 | 24.44° C | 58% | 1008.3 hPa | 0 mm | - | - | - |
| 1777831213 | 24.44° C | 60% | 1008.3 hPa | 0 mm | - | - | - |
| 1777830913 | 23.89° C | 59% | 1008.4 hPa | 0 mm | - | - | - |
| 1777830615 | 23.33° C | 64% | 1008.4 hPa | 0 mm | - | - | - |
| 1777830313 | 22.78° C | 65% | 1008.3 hPa | 0 mm | - | - | - |
| 1777830013 | 22.22° C | 64% | 1008.3 hPa | 0 mm | - | - | - |
| 1777829713 | 22.22° C | 71% | 1008.4 hPa | 0 mm | - | - | - |
| 1777829414 | 21.67° C | 72% | 1008.4 hPa | 0 mm | - | - | - |
| 1777829113 | 21.11° C | 73% | 1008.4 hPa | 0 mm | - | - | - |
| 1777828813 | 21.11° C | 74% | 1008.4 hPa | 0 mm | - | - | - |
* Rain latest hour (hover to see other rain measurements)
** Current wind speed in m/s (hover to see current wind gust speed)